User: anonymous   Login
Location: Wawayanda State Park
(41.1833°N, 74.4333°W)
Time: 05:11:52
(UTC-04:00)
Language:

RESURS DK-1 - Orbit

View from above orbital plane
View from above orbital plane
View from above satellite
View from above satellite

Ground track
Ground track

The orbit data is extracted from the following two-line orbital elements,

1 29228U 06021A   16205.20017082  .00000159  00000-0  19548-4 0  9992
2 29228  69.9340 214.9619 0002794 166.1356 193.9882 15.01945378558706
Epoch (UTC): 23 July 2016 04:48:14
Eccentricity: 0.0002794
inclination: 69.9340°
perigee height: 559 km
apogee height: 563 km
right ascension of ascending node: 214.9619°
argument of perigee: 166.1356°
revolutions per day: 15.01945378
mean anomaly at epoch: 193.9882°
orbit number at epoch: 55870

The dashed part of the orbit path shows where the satellite is in the earth's shadow,  

DLR